Etusivu
METAR-TAF:

METAR-TAF

Lentoasemat :

Bigfork Municipal Airport

Bigfork, Minnesota, Yhdysvallat

Leveyspiiri: 47-46-58N, Pituuspiiri: 093-39-01W, korkeus merenpinnasta: 411 m

Tämänhetkinen sää

Tämä raportti tehtiin 22 minuuttia sitten, kello 16.14 UTC
Tuuli 3 kn pohjoisen/luoteesta
Lämpötila -6°C
Kosteus 79%
Ilmanpaine 1029 hPa
Näkyvyys: 16.1 km
Pilvistä 5000 ft:n korkeudessa

METAR: KFOZ 251614Z AUTO 34003KT 10SM OVC050 M06/M09 A3038 RMK AO2

Aika: 10:36 (16:36 UTC)


TAF: puuttuu

Säähavainnot ja -ennusteet yli 4000 lentoasemalta (METAR- ja TAF-raportit).

Käytössä olevat sääasemat on merkitty karttaan keltaisilla ja punaisilla pisteillä.

Aseta hiiri pisteen päälle nähdäksesi sääaseman nimen.

Klikkaa sitten nähdäksesi säähavainnot ja -ennusteet.

Kartan vaihtaminen: klikkaa mustalla rastilla varustettuja vihreitä pisteitä, niin voit zoomata sisään; viivalla varustettua vihreää pistettä, niin voit zoomata ulos tai vihreitä nuolia, niin pääset viereisille kartoille.


METAR-TAF: